Torna al catalogo

THORAD AGENA D DEB

AttivoSSO
NORAD 4979·DEBRIS·🇺🇸 United States

Lanciato Apr 8, 1970 da Vandenberg Space Force Base

Loading…

Prossimi Passaggi

TLE

Source: Space-Track
1  4979U 70025GZ  26224.16998603  .00000052  00000-0  13273-3 0  9997
2  4979 100.0399 108.6870 0013007 350.4478 161.3714 13.60006362789650

Traccia THORAD AGENA D DEB in tempo reale con AllMySat

Download on the App Store